Find Orbcomm FM110

NORAD ID: 41182 Int'l Des: 2015-081 Owner: ORBC Country: US Constellation: orbcomm operational
LEOCIRCULAR

Live-Position

3D-Globus wird geladen...

Über Orbcomm FM110

Beschreibung wird geladen...

Nächste Überflüge

Passes for default location (London). Set your location on the main map for personalized predictions.

Höhenverlauf

Loading altitude history...

Zweizeiliger Elementsatz

1 41182U 15081D 26106.87562058 .00000277 00000-0 94911-4 0 9991
2 41182 47.0022 291.3221 0002915 160.4069 199.6929 14.58807865548673
Epoch: 16. Apr. 2026 • Age: 23 hours

Aktueller Status

Höhe 713.1 km
Geschwindigkeit 7.50 km/s
Subsatellitenpunkt -46.70°S, 66.42°E
Startdatum 22. Dez. 2015
Alter 10.3 years
Typ other

Technische Details

Klassifizierung Payload
Masse 172.00 kg
Trockenmasse 158.00 kg
Gesamtmasse 172.00 kg
Länge 1.00 m
Durchmesser 0.50 m
Spannweite 13.00 m
Form Box+pan+ant
Hersteller SNVL
Bus-Typ SN-100A
Phasenstatus In Orbit
Besitzer/Staat ORBC/US

Most Searched